Austin, MN

1:56 AM CDT on July 25, 2016 (GMT -0500)
Austin Municipal

Weather History for KAUM - February, 2013

Change the Weather History Date:

Friday, February 1, 2013

  Actual Average Record
Temperature  
Mean Temperature 0 °F -  
Max Temperature 8 °F 24 °F 37 °F (2003)
Min Temperature -9 °F 11 °F -9 °F (2013)
Degree Days  
Heating Degree Days 66    
Moisture  
Dew Point -8 °F    
Average Humidity 70    
Maximum Humidity 79    
Minimum Humidity 55    
Precipitation  
Precipitation 0.00 in - - ()
Sea Level Pressure  
Sea Level Pressure 30.16 in    
Wind  
Wind Speed 11 mph (SW)    
Max Wind Speed 17 mph    
Max Gust Speed 24 mph    
Visibility 8 miles    
Events Snow    
Averages and records for this station are not official NWS values.
T = Trace of Precipitation, MM = Missing Value Source: NWS Daily Summary

Daily Weather History Graph

Daily Weather History Graph

Search for Another Location

Airport or City:

Trip Planner

Search our weather history database for the weather conditions in past years. The results will help you decide how hot, cold, wet, or windy it might be!

Date:

Astronomy

Feb. 01, 2013 Rise Set
Actual Time 7:28 AM CST 5:23 PM CST
Civil Twilight 6:57 AM CST 5:53 PM CST
Nautical Twilight 6:23 AM CST 6:28 PM CST
Astronomical Twilight 5:49 AM CST 7:01 PM CST
Moon 11:45 PM CST (2/1) 9:48 AM CST (2/1)
Length of Visible Light 10h 56m
Length of Day
9h 55m
Waning Gibbous, 70% of the Moon is Illuminated
Feb 1
Waning Gibbous
Feb 3
Last Quarter
Feb 10
New
Feb 17
First Quarter
Feb 25
Full

Hourly Weather History & Observations

Time (CST) Temp. Windchill Dew Point Humidity Pressure Visibility Wind Dir Wind Speed Gust Speed Precip Events Conditions
12:15 AM -7.6 °F -29.8 °F -16.6 °F 65% 30.24 in 10.0 mi WNW 16.1 mph 24.2 mph N/A   Clear
12:56 AM -7.6 °F -30.5 °F -16.6 °F 65% 30.25 in 10.0 mi WNW 17.3 mph 24.2 mph N/A   Clear
1:15 AM -7.6 °F -25.7 °F -16.6 °F 65% 30.25 in 10.0 mi WNW 10.4 mph - N/A   Clear
1:35 AM -7.6 °F -26.6 °F -14.8 °F 71% 30.25 in 10.0 mi WNW 11.5 mph - N/A   Clear
1:55 AM -7.6 °F -25.7 °F -14.8 °F 71% 30.25 in 7.0 mi WNW 10.4 mph - N/A   Clear
2:15 AM -9.4 °F -30.6 °F -16.6 °F 71% 30.25 in 10.0 mi WNW 13.8 mph 20.7 mph N/A   Clear
2:35 AM -9.4 °F -29.8 °F -16.6 °F 71% 30.25 in 10.0 mi WNW 12.7 mph - N/A   Clear
2:55 AM -9.4 °F -31.4 °F -16.6 °F 71% 30.25 in 10.0 mi WNW 15.0 mph - N/A   Clear
3:15 AM -9.4 °F -30.6 °F -16.6 °F 71% 30.25 in 10.0 mi WNW 13.8 mph - N/A   Clear
3:35 AM -9.4 °F -27.9 °F -16.6 °F 71% 30.25 in 10.0 mi WNW 10.4 mph - N/A   Clear
3:56 AM -9.4 °F -27.9 °F -16.6 °F 71% 30.26 in 10.0 mi WNW 10.4 mph - N/A   Clear
4:15 AM -9.4 °F -25.6 °F -16.6 °F 71% 30.26 in 10.0 mi West 8.1 mph - N/A   Clear
4:35 AM -9.4 °F -25.6 °F -16.6 °F 71% 30.27 in 10.0 mi WNW 8.1 mph - N/A   Clear
4:56 AM -9.4 °F -26.8 °F -16.6 °F 71% 30.27 in 10.0 mi WNW 9.2 mph - N/A   Clear
5:15 AM -9.4 °F -24.3 °F -16.6 °F 71% 30.27 in 10.0 mi WNW 6.9 mph 10.4 mph N/A   Clear
5:35 AM -9.4 °F -26.8 °F -16.6 °F 71% 30.27 in 10.0 mi WNW 9.2 mph - N/A   Clear
5:55 AM -9.4 °F -25.6 °F -16.6 °F 71% 30.28 in 10.0 mi West 8.1 mph - N/A   Clear
6:15 AM -9.4 °F -28.9 °F -16.6 °F 71% 30.27 in 10.0 mi WNW 11.5 mph 16.1 mph N/A   Clear
6:35 AM -9.4 °F -27.9 °F -16.6 °F 71% 30.27 in 10.0 mi WNW 10.4 mph - N/A   Clear
7:15 AM -9.4 °F -27.9 °F -16.6 °F 71% 30.26 in 10.0 mi WNW 10.4 mph - N/A   Clear
7:35 AM -9.4 °F -22.7 °F -16.6 °F 71% 30.26 in 10.0 mi WNW 5.8 mph - N/A   Clear
8:15 AM -9.4 °F -25.6 °F -16.6 °F 71% 30.25 in 10.0 mi WNW 8.1 mph - N/A   Clear
8:36 AM -7.6 °F -24.6 °F -16.6 °F 65% 30.25 in 10.0 mi WNW 9.2 mph - N/A   Clear
8:55 AM -7.6 °F -22.1 °F -16.6 °F 65% 30.26 in 10.0 mi West 6.9 mph - N/A   Clear
9:15 AM -7.6 °F -20.6 °F -16.6 °F 65% 30.25 in 10.0 mi West 5.8 mph - N/A   Clear
9:36 AM -5.8 °F -21.2 °F -16.6 °F 60% 30.25 in 10.0 mi West 8.1 mph - N/A   Clear
9:55 AM -5.8 °F -18.4 °F -14.8 °F 65% 30.25 in 10.0 mi WSW 5.8 mph - N/A   Clear
10:15 AM -4.0 °F -16.3 °F -14.8 °F 60% 30.25 in 10.0 mi West 5.8 mph - N/A   Clear
10:36 AM -2.2 °F -15.6 °F -14.8 °F 55% 30.25 in 10.0 mi West 6.9 mph - N/A   Clear
10:55 AM -2.2 °F -15.6 °F -14.8 °F 55% 30.24 in 10.0 mi West 6.9 mph - N/A   Clear
11:15 AM -0.4 °F -13.4 °F -11.2 °F 60% 30.24 in 10.0 mi WSW 6.9 mph - N/A   Clear
11:35 AM -0.4 °F -12.0 °F -11.2 °F 60% 30.23 in 10.0 mi SSW 5.8 mph - N/A   Clear
11:55 AM 1.4 °F -13.5 °F -11.2 °F 56% 30.22 in 10.0 mi SSW 9.2 mph - N/A   Clear
12:15 PM 1.4 °F -13.5 °F -9.4 °F 61% 30.21 in 10.0 mi SW 9.2 mph - N/A   Clear
12:35 PM 3.2 °F -10.3 °F -9.4 °F 56% 30.20 in 10.0 mi WSW 8.1 mph - N/A   Clear
1:15 PM 3.2 °F -12.2 °F -7.6 °F 61% 30.19 in 10.0 mi SW 10.4 mph - N/A   Mostly Cloudy
1:35 PM 3.2 °F -11.3 °F -5.8 °F 66% 30.17 in 10.0 mi SSW 9.2 mph - N/A   Overcast
1:55 PM 6.8 °F -7.8 °F -5.8 °F 56% 30.16 in 10.0 mi SSW 10.4 mph - N/A   Overcast
2:15 PM 6.8 °F -7.8 °F -5.8 °F 56% 30.14 in 10.0 mi SSW 10.4 mph - N/A   Mostly Cloudy
2:35 PM 6.8 °F -6.9 °F -5.8 °F 56% 30.12 in 10.0 mi South 9.2 mph - N/A   Scattered Clouds
2:55 PM 6.8 °F -7.8 °F -4.0 °F 61% 30.12 in 10.0 mi South 10.4 mph - N/A   Mostly Cloudy
3:16 PM 6.8 °F -8.6 °F -2.2 °F 67% 30.11 in 10.0 mi South 11.5 mph - N/A   Mostly Cloudy
3:35 PM 6.8 °F -6.9 °F -2.2 °F 67% 30.10 in 10.0 mi South 9.2 mph - N/A   Scattered Clouds
4:16 PM 6.8 °F -7.8 °F -2.2 °F 67% 30.08 in 10.0 mi South 10.4 mph - N/A   Scattered Clouds
4:35 PM 6.8 °F -9.3 °F -2.2 °F 67% 30.07 in 10.0 mi South 12.7 mph - N/A   Scattered Clouds
4:55 PM 6.8 °F -8.6 °F -0.4 °F 72% 30.07 in 10.0 mi South 11.5 mph - N/A   Mostly Cloudy
5:16 PM 6.8 °F -9.3 °F -0.4 °F 72% 30.06 in 5.0 mi South 12.7 mph - N/A Snow Light Snow
5:35 PM 6.8 °F -9.3 °F -0.4 °F 72% 30.07 in 5.0 mi South 12.7 mph - N/A Snow Light Snow
5:55 PM 6.8 °F -7.8 °F -0.4 °F 72% 30.06 in 7.0 mi South 10.4 mph - N/A Snow Light Snow
6:15 PM 6.8 °F -6.9 °F 1.4 °F 79% 30.05 in 4.0 mi South 9.2 mph - N/A Snow Light Snow
6:35 PM 6.8 °F -7.8 °F 1.4 °F 79% 30.05 in 4.0 mi South 10.4 mph - N/A Snow Light Snow
6:56 PM 6.8 °F -7.8 °F 1.4 °F 79% 30.06 in 3.0 mi South 10.4 mph - N/A Snow Light Snow
7:15 PM 6.8 °F -6.9 °F 1.4 °F 79% 30.06 in 2.5 mi South 9.2 mph - N/A Snow Light Snow
7:35 PM 6.8 °F -4.8 °F 1.4 °F 79% 30.05 in 1.8 mi South 6.9 mph - N/A Snow Light Snow
8:00 PM 6.8 °F -3.5 °F 1.4 °F 79% 30.04 in 2.0 mi SSE 5.8 mph - N/A Snow Light Snow
8:15 PM 6.8 °F -3.5 °F 1.4 °F 79% 30.04 in 2.5 mi SSE 5.8 mph - N/A Snow Light Snow
8:35 PM 6.8 °F -5.9 °F 1.4 °F 79% 30.03 in 3.0 mi SSE 8.1 mph - N/A Snow Light Snow
8:56 PM 6.8 °F -4.8 °F 1.4 °F 79% 30.02 in 3.0 mi SSE 6.9 mph - N/A Snow Light Snow
9:15 PM 6.8 °F -4.8 °F 1.4 °F 79% 30.02 in 4.0 mi South 6.9 mph - N/A Snow Light Snow
9:35 PM 6.8 °F -4.8 °F 1.4 °F 79% 30.02 in 7.0 mi SSE 6.9 mph - N/A Snow Light Snow
9:55 PM 6.8 °F -5.9 °F 1.4 °F 79% 30.01 in 10.0 mi South 8.1 mph - N/A Snow Light Snow
10:15 PM 6.8 °F -4.8 °F 1.4 °F 79% 30.00 in 10.0 mi South 6.9 mph - N/A   Overcast
10:35 PM 6.8 °F -5.9 °F 1.4 °F 79% 30.00 in 10.0 mi South 8.1 mph - N/A   Overcast
10:55 PM 6.8 °F -4.8 °F 1.4 °F 79% 29.99 in 10.0 mi South 6.9 mph - N/A   Overcast
11:15 PM 8.6 °F -3.7 °F 3.2 °F 79% 29.99 in 10.0 mi South 8.1 mph - N/A   Overcast
11:35 PM 8.6 °F -3.7 °F 3.2 °F 79% 29.99 in 7.0 mi South 8.1 mph - N/A Snow Light Snow
11:55 PM 8.6 °F 0.1 °F 3.2 °F 79% 29.98 in 4.0 mi South 4.6 mph - N/A Snow Light Snow